N5COP-13 Weather Reports


Display with metric or nautical units.
time (UTC)temp
F
wind
direction
speed
MPH
gust
MPH
rain 1hr
in
rain 24hr
in
rain mn
in
humidity
%
barometer
mb
20260507114607 37 304 6.0 6.0 0.00 0.00 0.00 91 1021.7
20260507114105 37 315 4.0 6.0 0.00 0.00 0.00 91 1021.6
20260507113602 35 299 6.0 6.0 0.00 0.00 0.00 90 1021.7
20260507113059 34 305 4.0 4.0 0.00 0.00 0.00 90 1021.8
20260507112557 35 263 3.0 4.0 0.00 0.00 0.00 90 1021.6
20260507112053 35 266 2.0 3.0 0.00 0.00 0.00 90 1021.5
20260507111550 35 263 2.0 3.0 0.00 0.00 0.00 89 1021.5
20260507111047 35 251 2.0 3.0 0.00 0.00 0.00 89 1021.7
20260507110543 35 318 2.0 3.0 0.00 0.00 0.00 89 1021.6
20260507110040 35 300 1.0 3.0 0.00 0.00 0.00 89 1021.7
20260507105537 36 304 2.0 4.0 0.00 0.00 0.00 89 1021.7
20260507105033 36 322 4.0 4.0 0.00 0.00 0.00 89 1021.8
20260507104531 36 316 2.0 4.0 0.00 0.00 0.00 89 1021.6
20260507104027 36 302 3.0 4.0 0.00 0.00 0.00 88 1021.5
20260507103523 36 338 4.0 4.0 0.00 0.00 0.00 88 1021.7
20260507103020 36 335 4.0 6.0 0.00 0.00 0.00 88 1021.5
20260507102516 36 326 3.0 4.0 0.00 0.00 0.00 88 1021.7
20260507102012 36 311 2.0 2.0 0.00 0.00 0.00 88 1021.8
20260507101508 37 333 1.0 3.0 0.00 0.00 0.00 88 1021.7
20260507101004 37 357 2.0 4.0 0.00 0.00 0.00 87 1021.8
20260507100456 37 336 3.0 5.0 0.00 0.00 0.00 87 1021.8
20260507095954 37 327 5.0 6.0 0.00 0.00 0.00 87 1021.7
20260507095452 37 330 6.0 9.0 0.00 0.00 0.00 87 1021.8
20260507094948 36 328 7.0 9.0 0.00 0.00 0.00 86 1021.9
20260507094444 36 229 2.0 3.0 0.00 0.00 0.00 86 1021.6
20260507093941 36 261 2.0 4.0 0.00 0.00 0.00 86 1021.6
20260507093439 36 243 2.0 2.0 0.00 0.00 0.00 85 1021.6
20260507092937 37 262 2.0 5.0 0.00 0.00 0.00 86 1021.7
20260507092433 37 265 3.0 3.0 0.00 0.00 0.00 85 1021.5
20260507091930 37 283 0.0 2.0 0.00 0.00 0.00 85 1021.6
20260507091427 38 337 2.0 2.0 0.00 0.00 0.00 84 1021.5
20260507090922 39 296 2.0 3.0 0.00 0.00 0.00 84 1021.5
20260507090419 39 358 1.0 2.0 0.00 0.00 0.00 84 1021.6
20260507085915 39 347 2.0 3.0 0.00 0.00 0.00 84 1021.6
20260507085412 39 4 2.0 2.0 0.00 0.00 0.00 83 1021.6
20260507084910 40 3 2.0 3.0 0.00 0.00 0.00 83 1021.3
20260507084406 40 6 3.0 4.0 0.00 0.00 0.00 83 1021.3
20260507083904 40 52 2.0 4.0 0.00 0.00 0.00 82 1021.2
20260507083400 41 63 2.0 4.0 0.00 0.00 0.00 82 1021.3
20260507082856 41 28 5.0 6.0 0.00 0.00 0.00 81 1021.2
20260507082352 41 19 4.0 6.0 0.00 0.00 0.00 81 1021.6
20260507081849 42 32 4.0 6.0 0.00 0.00 0.00 81 1021.3
20260507081345 42 29 5.0 5.0 0.00 0.00 0.00 80 1021.5
20260507080842 43 116 5.0 6.0 0.00 0.00 0.00 80 1021.3
20260507080338 43 89 5.0 6.0 0.00 0.00 0.00 80 1021.2
20260507075834 43 94 5.0 8.0 0.00 0.00 0.00 79 1021.0
20260507075330 43 76 6.0 7.0 0.00 0.00 0.00 78 1021.2
20260507074826 43 79 6.0 9.0 0.00 0.00 0.00 78 1021.3
20260507074324 44 63 6.0 11.0 0.00 0.00 0.00 77 1021.5
20260507073821 44 107 13.0 17.0 0.00 0.00 0.00 76 1020.9
20260507073318 44 93 5.0 9.0 0.00 0.00 0.00 75 1021.7
20260507072815 44 10 6.0 9.0 0.00 0.00 0.00 74 1022.1
20260507072312 44 27 7.0 11.0 0.00 0.00 0.00 74 1022.1
20260507071810 44 358 5.0 9.0 0.00 0.00 0.00 73 1022.3
20260507071306 44 11 6.0 11.0 0.00 0.00 0.00 72 1022.5
20260507070803 44 11 9.0 13.0 0.00 0.00 0.00 72 1022.3
20260507070300 45 15 5.0 12.0 0.00 0.00 0.00 71 1022.6
20260507065757 45 11 9.0 13.0 0.00 0.00 0.00 71 1022.2
20260507065253 45 24 7.0 12.0 0.00 0.00 0.00 70 1022.1
20260507064751 45 33 6.0 11.0 0.00 0.00 0.00 70 1022.2
20260507064249 45 13 6.0 9.0 0.00 0.00 0.00 70 1022.6
20260507063747 45 13 8.0 8.0 0.00 0.00 0.00 69 1023.0
20260507063243 46 16 7.0 9.0 0.00 0.00 0.00 69 1022.7
20260507062740 46 13 4.0 6.0 0.00 0.00 0.00 69 1022.7
20260507062237 46 4 3.0 9.0 0.00 0.00 0.00 69 1022.7
20260507061736 46 11 6.0 9.0 0.00 0.00 0.00 69 1022.7
20260507061233 46 19 6.0 9.0 0.00 0.00 0.00 69 1022.2
20260507060731 46 19 8.0 9.0 0.00 0.00 0.00 68 1022.3
20260507060227 46 36 7.0 8.0 0.00 0.00 0.00 68 1022.2
20260507055724 46 38 9.0 11.0 0.00 0.00 0.00 67 1022.2
20260507055219 46 41 10.0 13.0 0.00 0.00 0.00 67 1021.9
20260507054715 46 30 9.0 11.0 0.00 0.00 0.00 67 1021.8
20260507054213 46 66 10.0 13.0 0.00 0.00 0.00 66 1021.9
20260507053710 46 24 5.0 13.0 0.00 0.00 0.00 66 1021.5
20260507053208 46 33 7.0 11.0 0.00 0.00 0.00 66 1021.6
20260507052706 46 38 10.0 15.0 0.00 0.00 0.00 66 1021.6
20260507052202 46 41 8.0 15.0 0.00 0.00 0.00 66 1021.8
20260507051700 46 18 7.0 15.0 0.00 0.00 0.00 66 1021.9
20260507051156 46 29 5.0 14.0 0.00 0.00 0.00 65 1021.6
20260507050653 46 37 7.0 13.0 0.00 0.00 0.00 65 1021.6
20260507050150 46 43 9.0 18.0 0.00 0.00 0.00 65 1021.5
20260507045647 46 25 9.0 19.0 0.00 0.00 0.00 64 1021.6
20260507045144 47 9 13.0 23.0 0.00 0.00 0.00 63 1021.2
20260507044641 47 36 15.0 19.0 0.00 0.00 0.00 62 1021.3
20260507044137 47 27 13.0 21.0 0.00 0.00 0.00 62 1021.3
20260507043633 47 24 11.0 17.0 0.00 0.00 0.00 63 1021.3
20260507043131 47 22 17.0 18.0 0.00 0.00 0.00 63 1021.5
20260507042627 47 12 12.0 18.0 0.00 0.00 0.00 63 1021.5
20260507042121 47 31 10.0 16.0 0.00 0.00 0.00 62 1021.5
20260507041619 47 27 13.0 18.0 0.00 0.00 0.00 62 1021.2
20260507041116 47 33 10.0 23.0 0.00 0.00 0.00 62 1021.2
20260507040612 47 29 13.0 22.0 0.00 0.00 0.00 62 1021.0
20260507040103 47 39 11.0 16.0 0.00 0.00 0.00 61 1021.0
20260507035559 48 43 15.0 25.0 0.00 0.00 0.00 61 1020.6
20260507035055 48 39 13.0 25.0 0.00 0.00 0.00 61 1020.6
20260507034552 48 31 11.0 20.0 0.00 0.00 0.00 61 1020.8
20260507034050 48 26 11.0 25.0 0.00 0.00 0.00 60 1020.6
20260507033548 49 8 14.0 21.0 0.00 0.00 0.00 60 1020.7
20260507033045 49 18 12.0 23.0 0.00 0.00 0.00 60 1020.6
20260507032542 49 28 14.0 21.0 0.00 0.00 0.00 60 1020.6
20260507032038 50 23 11.0 18.0 0.00 0.00 0.00 61 1020.3
20260507031535 50 25 12.0 19.0 0.00 0.00 0.00 61 1020.7
20260507031032 49 20 15.0 16.0 0.00 0.00 0.00 61 1020.3
20260507030528 50 24 10.0 21.0 0.00 0.00 0.00 61 1020.4
20260507030027 50 15 15.0 20.0 0.00 0.00 0.00 60 1019.9
20260507025523 51 28 9.0 22.0 0.00 0.00 0.00 58 1019.9
20260507025021 52 36 19.0 22.0 0.00 0.00 0.00 56 1020.0
20260507024518 53 13 18.0 26.0 0.00 0.00 0.00 53 1019.6
20260507024015 53 21 16.0 22.0 0.00 0.00 0.00 53 1019.3
20260507023511 53 29 10.0 21.0 0.00 0.00 0.00 53 1019.3
20260507023009 54 15 11.0 20.0 0.00 0.00 0.00 52 1019.2
20260507022505 54 17 10.0 21.0 0.00 0.00 0.00 52 1019.1
20260507022000 55 7 15.0 17.0 0.00 0.00 0.00 52 1019.1
20260507021456 55 32 11.0 15.0 0.00 0.00 0.00 51 1018.5
20260507020953 55 29 9.0 15.0 0.00 0.00 0.00 51 1018.4
20260507020450 55 51 11.0 16.0 0.00 0.00 0.00 51 1018.4
20260507015947 55 11 11.0 18.0 0.00 0.00 0.00 51 1018.1
20260507015446 55 25 11.0 19.0 0.00 0.00 0.00 51 1017.9
20260507014942 55 44 5.0 13.0 0.00 0.00 0.00 51 1017.8
20260507014439 55 42 7.0 10.0 0.00 0.00 0.00 51 1017.8
20260507013935 55 70 5.0 11.0 0.00 0.00 0.00 50 1017.4
20260507013431 55 76 11.0 13.0 0.00 0.00 0.00 50 1017.2
20260507012924 55 73 6.0 16.0 0.00 0.00 0.00 50 1016.8
20260507012420 56 81 10.0 17.0 0.00 0.00 0.00 49 1016.5
20260507011917 56 87 11.0 17.0 0.00 0.00 0.00 49 1016.3
20260507011414 56 76 18.0 20.0 0.00 0.00 0.00 49 1016.1
20260507010914 56 86 15.0 22.0 0.00 0.00 0.00 49 1016.1
20260507010409 57 81 17.0 23.0 0.00 0.00 0.00 49 1016.1
20260507005907 57 85 16.0 24.0 0.00 0.00 0.00 48 1015.8
20260507005403 57 85 19.0 23.0 0.00 0.00 0.00 48 1015.6
20260507004900 58 101 22.0 27.0 0.00 0.00 0.00 47 1015.9
20260507004357 58 80 26.0 30.0 0.00 0.00 0.00 46 1015.6
20260507003854 59 86 21.0 31.0 0.00 0.00 0.00 46 1015.8
20260507003349 59 95 19.0 26.0 0.00 0.00 0.00 46 1015.3
20260507002845 59 89 23.0 24.0 0.00 0.00 0.00 46 1015.3
20260507002341 59 106 19.0 26.0 0.00 0.00 0.00 46 1015.2
20260507001839 59 99 19.0 30.0 0.00 0.00 0.00 46 1015.3
20260507001335 59 85 24.0 29.0 0.00 0.00 0.00 45 1015.0
20260507000832 60 79 26.0 29.0 0.00 0.00 0.00 44 1015.0
20260507000328 60 95 17.0 31.0 0.00 0.00 0.00 45 1014.7
20260506235824 60 78 24.0 28.0 0.00 0.00 0.00 45 1014.6
20260506235320 60 88 22.0 29.0 0.00 0.00 0.00 45 1014.9
20260506234817 60 94 26.0 30.0 0.00 0.00 0.00 44 1014.7
20260506234315 60 87 28.0 37.0 0.00 0.00 0.00 44 1014.7
20260506233812 61 84 21.0 32.0 0.00 0.00 0.00 43 1014.5
20260506233308 61 80 21.0 25.0 0.00 0.00 0.00 44 1014.5
20260506232805 61 82 24.0 30.0 0.00 0.00 0.00 43 1014.6
20260506232259 61 84 20.0 29.0 0.00 0.00 0.00 44 1014.7
20260506231751 61 75 23.0 28.0 0.00 0.00 0.00 43 1014.9
20260506231249 62 94 24.0 35.0 0.00 0.00 0.00 43 1014.6
20260506230746 61 76 23.0 28.0 0.00 0.00 0.00 43 1014.6
20260506230242 62 88 21.0 30.0 0.00 0.00 0.00 42 1014.5
20260506225734 62 89 19.0 25.0 0.00 0.00 0.00 43 1014.5
20260506225231 62 88 23.0 34.0 0.00 0.00 0.00 43 1014.5
20260506224727 62 103 22.0 31.0 0.00 0.00 0.00 43 1014.5
20260506224225 62 99 19.0 29.0 0.00 0.00 0.00 42 1014.6
20260506223721 62 79 19.0 24.0 0.00 0.00 0.00 42 1014.7
20260506223216 63 87 19.0 23.0 0.00 0.00 0.00 42 1014.7
20260506222714 62 81 21.0 29.0 0.00 0.00 0.00 42 1015.0
20260506222209 63 66 16.0 21.0 0.00 0.00 0.00 41 1014.9
20260506221707 63 83 22.0 27.0 0.00 0.00 0.00 41 1014.6
20260506221205 63 80 17.0 26.0 0.00 0.00 0.00 41 1014.7
20260506220702 63 77 17.0 28.0 0.00 0.00 0.00 41 1014.6
20260506220157 63 76 22.0 34.0 0.00 0.00 0.00 41 1014.6
20260506215654 63 92 23.0 34.0 0.00 0.00 0.00 41 1014.6
20260506215149 63 77 19.0 30.0 0.00 0.00 0.00 41 1014.9
20260506214646 63 77 17.0 31.0 0.00 0.00 0.00 41 1014.9
20260506214143 64 83 19.0 28.0 0.00 0.00 0.00 40 1014.7
20260506213642 64 80 13.0 28.0 0.00 0.00 0.00 40 1014.9
20260506213139 62 82 21.0 27.0 0.00 0.00 0.00 42 1014.7
20260506212636 63 84 28.0 30.0 0.00 0.00 0.00 39 1014.9
20260506212131 66 99 23.0 31.0 0.00 0.00 0.00 39 1014.9
20260506211627 64 89 14.0 23.0 0.00 0.00 0.00 40 1014.9
20260506211124 63 63 9.0 27.0 0.00 0.00 0.00 40 1014.9
20260506210621 63 65 11.0 28.0 0.00 0.00 0.00 41 1015.1
20260506210117 64 89 18.0 30.0 0.00 0.00 0.00 39 1014.9
20260506205614 64 78 12.0 22.0 0.00 0.00 0.00 39 1014.9
20260506205109 64 74 10.0 16.0 0.00 0.00 0.00 39 1014.9
20260506204607 64 83 15.0 23.0 0.00 0.00 0.00 39 1015.0
20260506204104 64 82 18.0 22.0 0.00 0.00 0.00 39 1014.9
20260506203602 64 109 18.0 25.0 0.00 0.00 0.00 39 1015.3
20260506203058 65 136 12.0 25.0 0.00 0.00 0.00 39 1015.2
20260506202556 65 98 8.0 17.0 0.00 0.00 0.00 39 1015.1
20260506202052 65 79 13.0 19.0 0.00 0.00 0.00 40 1015.1
20260506201550 64 110 11.0 18.0 0.00 0.00 0.00 41 1015.2
20260506201046 62 74 12.0 18.0 0.00 0.00 0.00 42 1015.1
20260506200542 62 96 7.0 22.0 0.00 0.00 0.00 41 1015.3
20260506200039 62 108 15.0 21.0 0.00 0.00 0.00 41 1015.2
20260506195536 63 36 4.0 14.0 0.00 0.00 0.00 40 1015.1
20260506195032 64 59 2.0 19.0 0.00 0.00 0.00 39 1015.2
20260506194530 64 84 13.0 23.0 0.00 0.00 0.00 40 1015.1
20260506194026 64 92 14.0 18.0 0.00 0.00 0.00 41 1015.3
20260506193524 63 190 6.0 13.0 0.00 0.00 0.00 41 1015.5
20260506193021 62 82 11.0 15.0 0.00 0.00 0.00 43 1015.3
20260506192518 62 131 11.0 26.0 0.00 0.00 0.00 42 1015.4
20260506192013 63 192 8.0 11.0 0.00 0.00 0.00 41 1015.4
20260506191510 63 30 8.0 12.0 0.00 0.00 0.00 42 1015.8
20260506191007 62 344 4.0 5.0 0.00 0.00 0.00 44 1015.5
20260506190504 60 105 8.0 15.0 0.00 0.00 0.00 44 1016.0
20260506190000 61 108 16.0 18.0 0.00 0.00 0.00 44 1016.1
20260506185457 60 84 18.0 22.0 0.00 0.00 0.00 44 1016.0
20260506184954 60 79 12.0 16.0 0.00 0.00 0.00 45 1016.1
20260506184452 60 100 16.0 20.0 0.00 0.00 0.00 44 1016.2
20260506183949 62 39 5.0 11.0 0.00 0.00 0.00 44 1016.3
20260506183444 61 82 2.0 18.0 0.00 0.00 0.00 46 1016.0
20260506182941 60 195 5.0 10.0 0.00 0.00 0.00 46 1016.2
20260506182439 60 98 11.0 19.0 0.00 0.00 0.00 45 1016.5
20260506181936 61 133 15.0 26.0 0.00 0.00 0.00 46 1016.3
20260506181433 60 127 7.0 8.0 0.00 0.00 0.00 47 1016.5
20260506180930 59 110 11.0 15.0 0.00 0.00 0.00 48 1016.9
20260506180426 57 126 9.0 18.0 0.00 0.00 0.00 48 1016.8
20260506175918 59 87 7.0 16.0 0.00 0.00 0.00 47 1016.8
20260506175414 58 70 12.0 25.0 0.00 0.00 0.00 49 1016.8
20260506174911 57 116 23.0 23.0 0.00 0.00 0.00 49 1016.8
20260506174409 59 122 14.0 21.0 0.00 0.00 0.00 49 1017.2
20260506173906 57 126 9.0 23.0 0.00 0.00 0.00 49 1017.0
20260506173403 58 112 3.0 15.0 0.00 0.00 0.00 50 1016.8
20260506172900 57 113 10.0 17.0 0.00 0.00 0.00 50 1017.2
20260506172356 57 192 8.0 12.0 0.00 0.00 0.00 50 1017.0
20260506171854 58 74 12.0 16.0 0.00 0.00 0.00 50 1017.1
20260506171350 57 92 8.0 9.0 0.00 0.00 0.00 52 1017.1
20260506170848 55 113 9.0 10.0 0.00 0.00 0.00 51 1017.1
20260506170343 56 115 14.0 23.0 0.00 0.00 0.00 51 1017.0
20260506165838 57 127 5.0 9.0 0.00 0.00 0.00 52 1017.0
20260506165335 56 107 5.0 15.0 0.00 0.00 0.00 53 1017.1
20260506164831 55 114 4.0 10.0 0.00 0.00 0.00 54 1017.1
20260506164328 55 110 17.0 21.0 0.00 0.00 0.00 54 1017.1
20260506163825 55 77 7.0 14.0 0.00 0.00 0.00 55 1017.2
20260506163320 53 139 5.0 12.0 0.00 0.00 0.00 55 1017.1
20260506162815 54 155 7.0 15.0 0.00 0.00 0.00 55 1016.8
20260506162313 53 153 4.0 12.0 0.00 0.00 0.00 56 1017.0
20260506161805 53 111 10.0 11.0 0.00 0.00 0.00 57 1017.0
20260506161302 53 139 14.0 16.0 0.00 0.00 0.00 58 1016.9
20260506160800 52 100 6.0 14.0 0.00 0.00 0.00 58 1017.0
20260506160256 52 101 12.0 18.0 0.00 0.00 0.00 58 1017.0
20260506155755 52 75 12.0 15.0 0.00 0.00 0.00 58 1016.8
20260506155251 52 106 6.0 16.0 0.00 0.00 0.00 58 1016.5
20260506153358 51 76 9.0 17.0 0.00 0.00 0.00 62 1016.5
20260506152855 50 83 9.0 17.0 0.00 0.00 0.00 62 1016.8
20260506152352 50 86 10.0 21.0 0.00 0.00 0.00 62 1016.6
20260506151851 50 114 2.0 17.0 0.00 0.00 0.00 64 1016.6
20260506151347 50 111 10.0 19.0 0.00 0.00 0.00 65 1016.5
20260506150844 49 75 8.0 15.0 0.00 0.00 0.00 66 1016.6
20260506150341 48 122 10.0 18.0 0.00 0.00 0.00 67 1016.5
20260506145838 48 110 20.0 21.0 0.00 0.00 0.00 67 1016.5
20260506145334 48 140 4.0 12.0 0.00 0.00 0.00 69 1016.4
20260506144832 48 91 7.0 11.0 0.00 0.00 0.00 70 1016.5
20260506144328 46 122 11.0 17.0 0.00 0.00 0.00 71 1016.2
20260506143827 47 110 18.0 18.0 0.00 0.00 0.00 71 1016.4
20260506143323 46 114 12.0 18.0 0.00 0.00 0.00 72 1016.2
20260506142821 46 130 11.0 18.0 0.00 0.00 0.00 72 1016.4
20260506142319 46 130 15.0 20.0 0.00 0.00 0.00 73 1016.1
20260506141817 45 112 14.0 21.0 0.00 0.00 0.00 74 1016.0
20260506141315 44 111 19.0 25.0 0.00 0.00 0.00 74 1016.0
20260506140813 44 118 18.0 24.0 0.00 0.00 0.00 74 1016.0
20260506140310 44 116 24.0 25.0 0.00 0.00 0.00 75 1016.1
20260506135807 44 125 16.0 24.0 0.00 0.00 0.00 76 1016.2
20260506135305 44 127 17.0 23.0 0.00 0.00 0.00 76 1016.0
20260506134800 44 111 18.0 25.0 0.00 0.00 0.00 77 1015.9
20260506134256 44 110 17.0 28.0 0.00 0.00 0.00 78 1015.9
20260506133753 43 123 23.0 26.0 0.00 0.00 0.00 78 1015.6
20260506133250 43 130 18.0 24.0 0.00 0.00 0.00 78 1015.9
20260506132746 43 118 17.0 24.0 0.00 0.00 0.00 78 1015.6
20260506132244 43 111 19.0 24.0 0.00 0.00 0.00 78 1015.9
20260506131742 43 115 21.0 24.0 0.00 0.00 0.00 79 1016.1
20260506131237 42 114 13.0 22.0 0.00 0.00 0.00 80 1016.2
20260506130734 42 106 18.0 21.0 0.00 0.00 0.00 81 1016.1
20260506130231 42 104 14.0 22.0 0.00 0.00 0.00 81 1016.2
20260506125729 42 104 13.0 16.0 0.00 0.00 0.00 82 1016.4
20260506125227 42 102 9.0 20.0 0.00 0.00 0.00 83 1016.3
20260506124725 41 101 14.0 15.0 0.00 0.00 0.00 83 1016.5
20260506124222 41 93 11.0 16.0 0.00 0.00 0.00 84 1016.6
20260506123719 41 103 13.0 16.0 0.00 0.00 0.00 84 1016.5
20260506123218 41 82 16.0 17.0 0.00 0.00 0.00 84 1016.4
20260506122715 41 101 16.0 21.0 0.00 0.00 0.00 84 1016.1
20260506122212 41 94 13.0 19.0 0.00 0.00 0.00 84 1016.3
20260506121710 41 77 11.0 17.0 0.00 0.00 0.00 85 1016.0
20260506121206 41 85 13.0 18.0 0.00 0.00 0.00 84 1016.2
20260506120705 41 91 16.0 19.0 0.00 0.00 0.00 84 1016.0
20260506120202 41 89 17.0 20.0 0.00 0.00 0.00 84 1015.9
20260506115700 42 100 14.0 21.0 0.00 0.00 0.00 84 1016.0
20260506115157 42 97 20.0 20.0 0.00 0.00 0.00 84 1015.6